Terminal Aerodrome Forecast
Issued by NWS Atlanta, GA

Home | Current Version | Previous Version | Text Only | Print | Product List | Glossary On
Versions: 1 2 3 4 5 6 7 8 9 10 11 12 13 14 15 16 17 18 19 20 21 22 23 24 25 26 27 28 29 30 31 32 33 34 35
000
FTUS42 KFFC 041121
TAFATL
TAF
KATL 041121Z 0412/0518 00000KT P6SM FEW220
     FM041700 17006KT P6SM FEW050
     FM050200 16004KT P6SM SKC
     FM051100 12003KT P6SM FEW250=

USA.gov is the U.S. government's official web portal to all federal, state and local government web resources and services.